GFSFLT2_prec_precacc_120.txt.gz
Total_Precipitation_Accumulation
1.37 1.27 1.25 1.25 1.24 1.14 1.19 1.17 1.24 1.43 1.18 0.96 0.75 0.60 0.48 0.45 0.44 0.43 0.45 0.52 0.68 0.81 0.95 1.00 1.06 1.29 1.53
1.77 1.61 1.48 1.33 1.12 0.87 0.80 0.85 0.88 1.19 1.16 1.05 0.96 0.81 0.70 0.66 0.56 0.48 0.41 0.38 0.39 0.43 0.47 0.52 0.62 0.67 0.72
1.09 1.00 1.02 1.15 1.25 1.17 1.04 0.95 0.88 1.14 1.05 1.01 1.04 0.97 0.88 0.81 0.79 0.77 0.62 0.41 0.31 0.27 0.30 0.34 0.46 0.59 0.70
0.60 0.53 0.50 0.54 0.64 0.68 0.65 0.57 0.49 0.50 0.57 0.57 0.64 0.65 0.69 0.72 0.63 0.57 0.59 0.56 0.54 0.47 0.35 0.31 0.34 0.48 0.56
0.42 0.33 0.28 0.25 0.26 0.29 0.32 0.38 0.44 0.49 0.41 0.33 0.27 0.23 0.28 0.40 0.52 0.60 0.56 0.51 0.46 0.45 0.43 0.40 0.39 0.50 0.73
0.16 0.12 0.09 0.11 0.15 0.22 0.32 0.43 0.44 0.32 0.32 0.30 0.26 0.21 0.15 0.15 0.27 0.39 0.46 0.44 0.38 0.33 0.36 0.44 0.47 0.45 0.63
0.08 0.06 0.07 0.07 0.15 0.19 0.17 0.19 0.14 0.10 0.22 0.30 0.29 0.30 0.22 0.23 0.24 0.18 0.29 0.34 0.33 0.31 0.33 0.37 0.41 0.52 0.54
0.16 0.16 0.19 0.21 0.25 0.29 0.15 0.11 0.10 0.08 0.14 0.22 0.16 0.22 0.20 0.22 0.31 0.27 0.30 0.31 0.31 0.32 0.30 0.32 0.38 0.41 0.50
0.26 0.36 0.43 0.44 0.34 0.30 0.34 0.34 0.27 0.13 0.09 0.10 0.09 0.14 0.16 0.17 0.20 0.29 0.31 0.37 0.42 0.48 0.39 0.33 0.35 0.40 0.38
0.08 0.16 0.26 0.32 0.36 0.23 0.17 0.31 0.33 0.40 0.27 0.33 0.18 0.13 0.28 0.13 0.15 0.22 0.24 0.28 0.30 0.35 0.58 0.61 0.47 0.43 0.37
0.04 0.10 0.17 0.27 0.31 0.31 0.30 0.39 0.47 0.33 0.14 0.50 0.58 0.30 0.47 0.18 0.06 0.11 0.12 0.16 0.20 0.23 0.31 0.44 0.60 0.53 0.48
0.04 0.06 0.13 0.19 0.25 0.30 0.38 0.47 0.49 0.51 0.27 0.34 0.74 0.33 0.55 0.39 0.17 0.11 0.12 0.11 0.14 0.16 0.21 0.39 0.51 0.51 0.62
0.04 0.06 0.07 0.12 0.21 0.36 0.47 0.50 0.57 0.60 0.54 0.53 0.61 0.49 0.63 0.59 0.32 0.14 0.21 0.20 0.14 0.14 0.21 0.35 0.47 0.50 0.49
0.09 0.08 0.11 0.16 0.22 0.30 0.38 0.40 0.48 0.45 0.51 0.54 0.51 0.65 0.81 0.56 0.54 0.36 0.19 0.30 0.30 0.26 0.31 0.32 0.39 0.48 0.51
0.19 0.21 0.18 0.18 0.19 0.18 0.28 0.40 0.53 0.43 0.37 0.39 0.47 0.51 0.54 0.52 0.68 0.41 0.28 0.20 0.21 0.35 0.44 0.44 0.36 0.52 0.49
0.28 0.30 0.33 0.31 0.29 0.30 0.30 0.35 0.42 0.35 0.41 0.44 0.44 0.62 0.63 0.55 0.51 0.51 0.47 0.27 0.18 0.20 0.34 0.72 0.40 0.26 0.28
0.45 0.44 0.48 0.49 0.50 0.41 0.35 0.40 0.38 0.37 0.43 0.47 0.64 0.94 1.05 0.56 0.35 0.35 0.69 0.58 0.32 0.26 0.31 0.45 0.50 0.31 0.28

GFSFLT2_prec_precacc_123.txt.gz
Total_Precipitation_Accumulation
1.37 1.27 1.25 1.25 1.24 1.14 1.19 1.17 1.25 1.45 1.23 1.09 0.87 0.70 0.63 0.57 0.53 0.49 0.48 0.54 0.71 0.86 1.01 1.06 1.12 1.41 1.84
1.77 1.61 1.48 1.33 1.12 0.87 0.80 0.85 0.89 1.20 1.20 1.13 1.04 0.94 0.92 0.92 0.79 0.66 0.55 0.46 0.43 0.46 0.53 0.65 0.71 0.72 0.77
1.09 1.00 1.02 1.15 1.25 1.17 1.04 0.95 0.88 1.15 1.06 1.04 1.08 1.05 0.96 0.90 0.91 0.93 0.90 0.67 0.45 0.37 0.40 0.41 0.59 0.70 0.75
0.60 0.53 0.50 0.54 0.64 0.68 0.65 0.57 0.49 0.50 0.57 0.57 0.65 0.69 0.78 0.81 0.73 0.69 0.74 0.86 0.92 0.80 0.62 0.57 0.51 0.57 0.62
0.42 0.33 0.28 0.25 0.26 0.29 0.32 0.38 0.44 0.49 0.41 0.33 0.27 0.23 0.28 0.43 0.58 0.71 0.72 0.72 0.76 0.85 0.85 0.80 0.80 0.80 0.85
0.16 0.12 0.09 0.11 0.15 0.22 0.32 0.44 0.44 0.32 0.32 0.30 0.26 0.21 0.16 0.16 0.28 0.41 0.53 0.61 0.63 0.60 0.70 0.83 0.78 0.73 0.89
0.08 0.06 0.07 0.07 0.15 0.20 0.18 0.20 0.15 0.10 0.22 0.30 0.29 0.30 0.22 0.24 0.25 0.23 0.33 0.41 0.47 0.54 0.57 0.58 0.64 0.75 0.72
0.16 0.16 0.19 0.21 0.26 0.30 0.16 0.12 0.10 0.08 0.14 0.22 0.16 0.22 0.20 0.22 0.32 0.30 0.33 0.34 0.36 0.40 0.45 0.50 0.53 0.54 0.60
0.26 0.36 0.43 0.44 0.34 0.30 0.34 0.35 0.27 0.13 0.09 0.10 0.09 0.14 0.16 0.17 0.20 0.29 0.32 0.37 0.43 0.50 0.43 0.43 0.47 0.50 0.43
0.08 0.16 0.26 0.32 0.36 0.23 0.17 0.32 0.34 0.41 0.27 0.33 0.18 0.13 0.28 0.13 0.15 0.22 0.24 0.28 0.30 0.36 0.59 0.65 0.55 0.50 0.41
0.04 0.10 0.17 0.27 0.31 0.31 0.30 0.39 0.47 0.34 0.14 0.52 0.59 0.30 0.47 0.18 0.06 0.11 0.12 0.16 0.20 0.23 0.32 0.46 0.66 0.63 0.55
0.04 0.06 0.13 0.19 0.25 0.30 0.38 0.47 0.49 0.51 0.28 0.36 0.77 0.33 0.55 0.39 0.17 0.11 0.12 0.11 0.14 0.16 0.21 0.40 0.54 0.61 0.75
0.04 0.06 0.07 0.12 0.21 0.36 0.47 0.50 0.57 0.60 0.54 0.53 0.61 0.49 0.63 0.59 0.32 0.14 0.21 0.20 0.14 0.14 0.21 0.35 0.48 0.58 0.61
0.09 0.08 0.11 0.16 0.22 0.30 0.39 0.41 0.49 0.45 0.51 0.54 0.51 0.65 0.81 0.56 0.54 0.36 0.19 0.30 0.30 0.26 0.31 0.32 0.40 0.52 0.62
0.19 0.21 0.18 0.19 0.19 0.18 0.28 0.40 0.54 0.43 0.37 0.39 0.47 0.51 0.54 0.52 0.68 0.41 0.28 0.20 0.21 0.35 0.44 0.44 0.36 0.55 0.57
0.28 0.30 0.33 0.31 0.29 0.30 0.31 0.36 0.43 0.35 0.42 0.44 0.44 0.62 0.63 0.55 0.51 0.51 0.48 0.27 0.18 0.20 0.34 0.72 0.40 0.27 0.35
0.45 0.45 0.48 0.49 0.50 0.42 0.35 0.41 0.39 0.37 0.43 0.47 0.65 0.94 1.07 0.56 0.35 0.35 0.70 0.59 0.33 0.26 0.32 0.45 0.50 0.31 0.30

GFSFLT2_prec_precacc_126.txt.gz
Total_Precipitation_Accumulation
1.37 1.27 1.25 1.25 1.24 1.14 1.19 1.17 1.25 1.45 1.23 1.09 0.87 0.70 0.63 0.57 0.53 0.50 0.50 0.56 0.73 0.87 1.03 1.08 1.17 1.48 1.93
1.77 1.61 1.48 1.33 1.12 0.87 0.80 0.85 0.89 1.20 1.20 1.13 1.04 0.94 0.92 0.92 0.81 0.68 0.57 0.50 0.47 0.49 0.55 0.67 0.74 0.79 0.84
1.09 1.00 1.02 1.15 1.25 1.17 1.04 0.95 0.88 1.15 1.06 1.04 1.08 1.05 0.96 0.90 0.92 0.98 0.96 0.76 0.54 0.45 0.45 0.45 0.62 0.78 0.86
0.60 0.53 0.50 0.54 0.64 0.68 0.65 0.57 0.49 0.50 0.57 0.57 0.65 0.69 0.78 0.81 0.73 0.70 0.78 0.94 1.04 0.94 0.73 0.63 0.59 0.65 0.69
0.43 0.33 0.28 0.25 0.26 0.29 0.33 0.39 0.44 0.49 0.41 0.33 0.27 0.23 0.28 0.43 0.59 0.72 0.73 0.77 0.85 0.96 1.00 0.92 0.88 0.93 1.04
0.17 0.12 0.09 0.11 0.15 0.23 0.32 0.44 0.44 0.32 0.32 0.30 0.26 0.21 0.16 0.16 0.28 0.41 0.54 0.62 0.66 0.68 0.81 0.99 0.97 0.90 1.13
0.08 0.06 0.07 0.07 0.16 0.20 0.18 0.20 0.15 0.10 0.22 0.30 0.29 0.30 0.22 0.24 0.25 0.23 0.33 0.41 0.47 0.55 0.64 0.70 0.84 1.03 0.99
0.16 0.16 0.20 0.22 0.26 0.30 0.16 0.12 0.10 0.08 0.14 0.22 0.16 0.22 0.20 0.22 0.32 0.30 0.33 0.34 0.36 0.40 0.47 0.58 0.66 0.73 0.84
0.26 0.37 0.44 0.44 0.34 0.30 0.35 0.35 0.27 0.13 0.09 0.10 0.09 0.14 0.16 0.17 0.20 0.29 0.32 0.37 0.43 0.50 0.44 0.44 0.54 0.63 0.60
0.08 0.16 0.26 0.32 0.36 0.23 0.17 0.32 0.34 0.41 0.27 0.33 0.18 0.14 0.29 0.13 0.15 0.22 0.24 0.28 0.30 0.36 0.59 0.66 0.56 0.56 0.53
0.04 0.10 0.17 0.27 0.31 0.31 0.30 0.39 0.48 0.34 0.14 0.53 0.60 0.31 0.48 0.19 0.06 0.11 0.12 0.16 0.20 0.24 0.32 0.46 0.66 0.64 0.60
0.04 0.06 0.13 0.19 0.25 0.30 0.39 0.47 0.49 0.52 0.28 0.36 0.78 0.34 0.57 0.40 0.17 0.11 0.12 0.11 0.14 0.16 0.21 0.40 0.54 0.61 0.76
0.04 0.06 0.07 0.12 0.21 0.36 0.47 0.50 0.57 0.60 0.54 0.53 0.62 0.50 0.65 0.61 0.33 0.14 0.21 0.20 0.14 0.14 0.21 0.35 0.48 0.58 0.61
0.09 0.08 0.11 0.16 0.23 0.30 0.39 0.41 0.49 0.45 0.51 0.54 0.52 0.66 0.82 0.57 0.55 0.37 0.19 0.30 0.30 0.26 0.31 0.32 0.40 0.52 0.62
0.19 0.21 0.19 0.19 0.19 0.18 0.29 0.40 0.54 0.44 0.38 0.39 0.47 0.51 0.54 0.53 0.69 0.41 0.28 0.20 0.22 0.36 0.45 0.44 0.36 0.55 0.57
0.29 0.30 0.33 0.31 0.30 0.30 0.31 0.37 0.44 0.36 0.42 0.44 0.45 0.62 0.63 0.55 0.52 0.52 0.48 0.28 0.19 0.20 0.34 0.73 0.41 0.27 0.35
0.45 0.45 0.49 0.50 0.51 0.42 0.36 0.41 0.40 0.38 0.44 0.48 0.65 0.96 1.09 0.57 0.35 0.35 0.70 0.60 0.33 0.27 0.32 0.46 0.50 0.31 0.30

GFSFLT2_prec_precacc_129.txt.gz
Total_Precipitation_Accumulation
1.37 1.27 1.25 1.25 1.24 1.14 1.19 1.17 1.25 1.45 1.23 1.09 0.87 0.70 0.63 0.57 0.53 0.50 0.50 0.56 0.73 0.87 1.03 1.08 1.17 1.49 1.94
1.77 1.61 1.48 1.33 1.12 0.87 0.80 0.85 0.89 1.20 1.20 1.13 1.04 0.94 0.92 0.92 0.81 0.68 0.57 0.50 0.47 0.49 0.55 0.67 0.75 0.79 0.84
1.09 1.00 1.02 1.15 1.25 1.17 1.04 0.95 0.88 1.15 1.06 1.04 1.08 1.05 0.96 0.90 0.92 0.98 0.96 0.76 0.54 0.45 0.45 0.46 0.63 0.79 0.86
0.60 0.53 0.50 0.54 0.64 0.68 0.65 0.57 0.49 0.50 0.57 0.57 0.65 0.69 0.78 0.81 0.73 0.70 0.78 0.94 1.05 0.95 0.74 0.65 0.60 0.66 0.69
0.43 0.33 0.28 0.25 0.26 0.29 0.33 0.39 0.44 0.49 0.41 0.33 0.27 0.23 0.28 0.43 0.59 0.72 0.73 0.77 0.85 0.96 1.00 0.93 0.90 0.94 1.05
0.17 0.12 0.09 0.11 0.15 0.23 0.32 0.44 0.44 0.32 0.32 0.30 0.26 0.21 0.16 0.16 0.28 0.41 0.54 0.62 0.66 0.68 0.81 0.99 0.98 0.92 1.14
0.08 0.06 0.07 0.07 0.16 0.20 0.19 0.21 0.15 0.10 0.22 0.30 0.29 0.30 0.22 0.24 0.25 0.23 0.33 0.41 0.47 0.55 0.64 0.70 0.84 1.04 1.03
0.16 0.16 0.20 0.22 0.27 0.31 0.17 0.12 0.10 0.08 0.14 0.22 0.16 0.22 0.20 0.22 0.32 0.30 0.33 0.34 0.36 0.40 0.47 0.58 0.66 0.73 0.87
0.26 0.37 0.44 0.44 0.34 0.30 0.35 0.35 0.27 0.13 0.09 0.10 0.09 0.14 0.16 0.17 0.20 0.29 0.32 0.37 0.43 0.50 0.44 0.44 0.54 0.63 0.61
0.08 0.16 0.26 0.32 0.36 0.23 0.17 0.32 0.35 0.42 0.27 0.34 0.18 0.14 0.29 0.13 0.15 0.22 0.24 0.28 0.30 0.36 0.59 0.66 0.56 0.56 0.53
0.04 0.10 0.17 0.27 0.31 0.31 0.30 0.39 0.48 0.35 0.14 0.54 0.61 0.31 0.50 0.19 0.06 0.11 0.12 0.16 0.20 0.24 0.32 0.46 0.66 0.64 0.60
0.04 0.06 0.13 0.19 0.25 0.30 0.39 0.47 0.49 0.52 0.28 0.37 0.80 0.35 0.59 0.42 0.18 0.11 0.12 0.11 0.14 0.16 0.21 0.40 0.54 0.61 0.76
0.04 0.06 0.07 0.12 0.21 0.36 0.47 0.50 0.57 0.60 0.54 0.53 0.62 0.51 0.68 0.64 0.34 0.14 0.22 0.20 0.14 0.14 0.21 0.35 0.48 0.58 0.62
0.09 0.08 0.11 0.16 0.23 0.30 0.40 0.41 0.50 0.46 0.51 0.54 0.52 0.67 0.84 0.58 0.56 0.38 0.20 0.30 0.30 0.27 0.31 0.32 0.40 0.52 0.62
0.19 0.21 0.19 0.19 0.20 0.18 0.29 0.41 0.55 0.44 0.38 0.39 0.48 0.52 0.55 0.54 0.70 0.42 0.28 0.21 0.22 0.36 0.45 0.45 0.36 0.55 0.57
0.29 0.30 0.33 0.32 0.30 0.31 0.32 0.38 0.45 0.37 0.42 0.44 0.45 0.63 0.63 0.55 0.52 0.52 0.49 0.28 0.19 0.20 0.34 0.73 0.41 0.27 0.35
0.46 0.45 0.49 0.50 0.51 0.43 0.36 0.42 0.41 0.38 0.44 0.48 0.66 0.97 1.10 0.57 0.35 0.36 0.71 0.60 0.33 0.27 0.32 0.46 0.51 0.31 0.30

GFSFLT2_prec_precacc_132.txt.gz
Total_Precipitation_Accumulation
1.37 1.27 1.25 1.25 1.24 1.14 1.19 1.17 1.25 1.45 1.23 1.09 0.87 0.70 0.63 0.57 0.53 0.50 0.50 0.56 0.73 0.87 1.03 1.08 1.18 1.50 1.95
1.77 1.61 1.48 1.33 1.12 0.87 0.80 0.85 0.89 1.20 1.20 1.13 1.04 0.94 0.92 0.92 0.81 0.68 0.57 0.50 0.47 0.49 0.55 0.68 0.75 0.80 0.85
1.09 1.00 1.02 1.15 1.25 1.17 1.04 0.95 0.88 1.15 1.06 1.04 1.08 1.05 0.96 0.90 0.92 0.98 0.96 0.76 0.54 0.45 0.45 0.46 0.63 0.79 0.87
0.60 0.53 0.50 0.54 0.64 0.68 0.65 0.57 0.49 0.50 0.57 0.57 0.65 0.69 0.78 0.81 0.73 0.70 0.78 0.94 1.05 0.95 0.74 0.65 0.60 0.66 0.69
0.43 0.33 0.28 0.25 0.26 0.29 0.33 0.39 0.44 0.49 0.41 0.33 0.27 0.23 0.28 0.43 0.59 0.72 0.73 0.77 0.85 0.96 1.00 0.93 0.90 0.94 1.05
0.17 0.12 0.09 0.11 0.15 0.23 0.32 0.44 0.44 0.32 0.32 0.30 0.26 0.21 0.16 0.16 0.28 0.41 0.54 0.62 0.66 0.68 0.81 0.99 0.98 0.92 1.14
0.09 0.06 0.07 0.07 0.16 0.20 0.19 0.21 0.15 0.10 0.22 0.30 0.29 0.30 0.22 0.24 0.25 0.23 0.33 0.41 0.47 0.55 0.64 0.70 0.84 1.04 1.03
0.16 0.16 0.20 0.22 0.27 0.31 0.17 0.12 0.10 0.08 0.14 0.22 0.16 0.22 0.20 0.22 0.32 0.30 0.33 0.34 0.36 0.40 0.47 0.58 0.66 0.73 0.87
0.26 0.37 0.44 0.44 0.34 0.30 0.35 0.35 0.27 0.13 0.09 0.10 0.09 0.14 0.16 0.17 0.20 0.29 0.32 0.37 0.43 0.50 0.44 0.44 0.54 0.63 0.61
0.08 0.16 0.26 0.32 0.36 0.23 0.17 0.32 0.35 0.42 0.27 0.34 0.18 0.14 0.30 0.13 0.15 0.22 0.24 0.28 0.30 0.36 0.59 0.66 0.56 0.56 0.53
0.04 0.10 0.17 0.27 0.31 0.31 0.30 0.39 0.48 0.35 0.14 0.54 0.62 0.32 0.51 0.20 0.06 0.11 0.12 0.16 0.20 0.24 0.32 0.46 0.66 0.64 0.61
0.04 0.06 0.13 0.19 0.25 0.30 0.39 0.47 0.49 0.52 0.28 0.37 0.80 0.35 0.61 0.43 0.18 0.11 0.12 0.11 0.14 0.16 0.21 0.40 0.54 0.61 0.77
0.04 0.06 0.07 0.12 0.21 0.36 0.47 0.50 0.57 0.60 0.54 0.53 0.62 0.51 0.69 0.66 0.35 0.14 0.22 0.20 0.14 0.14 0.21 0.35 0.48 0.58 0.62
0.09 0.08 0.11 0.16 0.23 0.30 0.40 0.41 0.50 0.46 0.51 0.54 0.52 0.67 0.85 0.59 0.59 0.39 0.20 0.31 0.30 0.27 0.31 0.32 0.40 0.52 0.62
0.19 0.21 0.19 0.19 0.20 0.18 0.29 0.41 0.56 0.45 0.38 0.39 0.48 0.52 0.55 0.54 0.71 0.42 0.28 0.21 0.22 0.36 0.45 0.45 0.36 0.55 0.57
0.29 0.30 0.34 0.32 0.30 0.31 0.32 0.39 0.46 0.37 0.42 0.44 0.45 0.63 0.64 0.55 0.52 0.52 0.49 0.28 0.19 0.20 0.34 0.73 0.41 0.27 0.35
0.46 0.46 0.50 0.51 0.52 0.43 0.37 0.43 0.41 0.38 0.44 0.48 0.66 0.98 1.12 0.58 0.35 0.36 0.71 0.60 0.33 0.27 0.32 0.46 0.51 0.31 0.30

GFSFLT2_prec_precacc_138.txt.gz
Total_Precipitation_Accumulation
1.37 1.27 1.25 1.25 1.24 1.14 1.19 1.17 1.25 1.45 1.23 1.09 0.87 0.70 0.63 0.57 0.53 0.50 0.50 0.56 0.73 0.87 1.03 1.08 1.18 1.50 1.95
1.77 1.61 1.48 1.33 1.12 0.87 0.80 0.85 0.89 1.20 1.20 1.13 1.04 0.94 0.92 0.92 0.81 0.68 0.57 0.50 0.47 0.49 0.55 0.68 0.75 0.80 0.85
1.09 1.00 1.02 1.15 1.25 1.17 1.04 0.95 0.88 1.15 1.06 1.04 1.08 1.05 0.96 0.90 0.92 0.98 0.96 0.76 0.54 0.45 0.45 0.46 0.63 0.79 0.87
0.60 0.53 0.50 0.54 0.64 0.68 0.65 0.57 0.49 0.50 0.57 0.57 0.65 0.69 0.78 0.81 0.73 0.70 0.78 0.94 1.05 0.95 0.74 0.65 0.60 0.66 0.69
0.43 0.33 0.28 0.25 0.26 0.29 0.33 0.39 0.44 0.49 0.41 0.33 0.27 0.23 0.28 0.43 0.59 0.72 0.73 0.77 0.85 0.96 1.00 0.93 0.90 0.94 1.05
0.17 0.12 0.09 0.11 0.15 0.23 0.32 0.44 0.44 0.32 0.32 0.30 0.26 0.21 0.16 0.16 0.28 0.41 0.54 0.62 0.66 0.68 0.81 0.99 0.98 0.92 1.14
0.09 0.06 0.07 0.07 0.16 0.20 0.19 0.21 0.15 0.10 0.22 0.30 0.29 0.30 0.22 0.24 0.25 0.23 0.33 0.41 0.47 0.55 0.64 0.70 0.84 1.04 1.03
0.16 0.16 0.20 0.22 0.27 0.31 0.18 0.14 0.10 0.08 0.14 0.22 0.16 0.22 0.20 0.22 0.32 0.30 0.33 0.34 0.36 0.40 0.47 0.58 0.66 0.73 0.87
0.26 0.37 0.44 0.45 0.35 0.31 0.36 0.36 0.27 0.13 0.09 0.10 0.09 0.14 0.16 0.17 0.20 0.29 0.32 0.37 0.43 0.50 0.44 0.44 0.54 0.63 0.61
0.08 0.16 0.26 0.32 0.36 0.23 0.17 0.32 0.35 0.42 0.27 0.34 0.18 0.15 0.31 0.13 0.15 0.22 0.24 0.28 0.30 0.36 0.59 0.66 0.56 0.56 0.53
0.04 0.10 0.17 0.27 0.31 0.31 0.30 0.39 0.48 0.35 0.14 0.54 0.62 0.32 0.52 0.20 0.06 0.11 0.12 0.16 0.20 0.24 0.32 0.46 0.66 0.64 0.61
0.04 0.06 0.13 0.19 0.25 0.30 0.39 0.47 0.49 0.52 0.28 0.37 0.80 0.35 0.62 0.45 0.18 0.11 0.12 0.11 0.14 0.16 0.21 0.40 0.54 0.61 0.77
0.04 0.06 0.07 0.12 0.21 0.36 0.47 0.50 0.57 0.60 0.54 0.53 0.62 0.51 0.71 0.68 0.36 0.15 0.22 0.20 0.14 0.14 0.21 0.35 0.48 0.58 0.62
0.09 0.08 0.11 0.16 0.23 0.30 0.40 0.41 0.50 0.46 0.51 0.54 0.52 0.67 0.85 0.59 0.59 0.40 0.20 0.31 0.30 0.27 0.31 0.32 0.40 0.52 0.62
0.19 0.21 0.19 0.19 0.20 0.18 0.30 0.41 0.56 0.45 0.38 0.39 0.48 0.52 0.55 0.54 0.72 0.43 0.28 0.21 0.22 0.36 0.45 0.45 0.36 0.55 0.57
0.29 0.30 0.34 0.32 0.31 0.31 0.33 0.40 0.47 0.37 0.42 0.44 0.45 0.63 0.64 0.55 0.52 0.53 0.49 0.28 0.19 0.20 0.34 0.74 0.41 0.27 0.35
0.46 0.46 0.50 0.51 0.52 0.44 0.37 0.43 0.42 0.38 0.44 0.48 0.66 1.00 1.17 0.60 0.35 0.36 0.71 0.60 0.33 0.27 0.32 0.46 0.51 0.31 0.30

GFSFLT2_prec_precacc_141.txt.gz
Total_Precipitation_Accumulation
1.37 1.27 1.25 1.25 1.24 1.14 1.19 1.17 1.25 1.45 1.23 1.09 0.87 0.70 0.63 0.57 0.53 0.50 0.50 0.56 0.73 0.87 1.03 1.08 1.18 1.50 1.95
1.77 1.61 1.48 1.33 1.12 0.87 0.80 0.85 0.89 1.20 1.20 1.13 1.04 0.94 0.92 0.92 0.81 0.68 0.57 0.50 0.47 0.49 0.55 0.68 0.75 0.80 0.85
1.09 1.00 1.02 1.15 1.25 1.17 1.04 0.95 0.88 1.15 1.06 1.04 1.08 1.05 0.96 0.90 0.92 0.98 0.96 0.76 0.54 0.45 0.45 0.46 0.63 0.79 0.87
0.60 0.53 0.50 0.54 0.64 0.68 0.65 0.57 0.49 0.50 0.57 0.57 0.65 0.69 0.78 0.81 0.73 0.70 0.78 0.94 1.05 0.95 0.74 0.65 0.60 0.66 0.69
0.43 0.33 0.28 0.25 0.26 0.29 0.33 0.39 0.44 0.49 0.41 0.33 0.27 0.23 0.28 0.43 0.59 0.72 0.73 0.77 0.85 0.96 1.00 0.93 0.90 0.94 1.05
0.17 0.12 0.09 0.11 0.15 0.23 0.32 0.44 0.44 0.32 0.32 0.30 0.26 0.21 0.16 0.16 0.28 0.41 0.54 0.62 0.66 0.68 0.81 0.99 0.98 0.92 1.14
0.09 0.06 0.07 0.07 0.16 0.20 0.19 0.21 0.15 0.10 0.22 0.30 0.29 0.30 0.22 0.24 0.25 0.23 0.33 0.41 0.47 0.55 0.64 0.70 0.84 1.04 1.03
0.16 0.16 0.20 0.22 0.27 0.31 0.18 0.14 0.10 0.08 0.14 0.22 0.16 0.22 0.20 0.22 0.32 0.30 0.33 0.34 0.36 0.40 0.47 0.58 0.66 0.73 0.87
0.26 0.37 0.44 0.45 0.35 0.33 0.38 0.37 0.28 0.13 0.09 0.10 0.09 0.14 0.16 0.17 0.20 0.29 0.32 0.37 0.43 0.50 0.44 0.44 0.54 0.63 0.61
0.08 0.16 0.26 0.32 0.36 0.23 0.17 0.34 0.35 0.42 0.27 0.34 0.18 0.15 0.31 0.13 0.15 0.22 0.24 0.28 0.30 0.36 0.59 0.66 0.56 0.56 0.53
0.04 0.10 0.17 0.27 0.31 0.31 0.30 0.39 0.49 0.35 0.14 0.54 0.62 0.32 0.52 0.20 0.06 0.11 0.12 0.16 0.20 0.24 0.32 0.46 0.66 0.64 0.61
0.04 0.07 0.13 0.20 0.25 0.30 0.39 0.47 0.49 0.52 0.28 0.37 0.80 0.35 0.62 0.45 0.18 0.11 0.12 0.11 0.14 0.16 0.21 0.40 0.54 0.61 0.77
0.04 0.06 0.07 0.12 0.21 0.36 0.47 0.50 0.57 0.60 0.54 0.53 0.62 0.51 0.71 0.68 0.36 0.15 0.22 0.20 0.14 0.14 0.21 0.35 0.48 0.58 0.62
0.09 0.08 0.11 0.16 0.23 0.30 0.40 0.41 0.50 0.46 0.51 0.54 0.52 0.67 0.85 0.60 0.60 0.41 0.20 0.31 0.30 0.27 0.31 0.32 0.40 0.52 0.62
0.20 0.21 0.19 0.19 0.20 0.18 0.30 0.41 0.57 0.45 0.38 0.39 0.48 0.52 0.55 0.54 0.72 0.43 0.28 0.21 0.22 0.36 0.45 0.45 0.36 0.55 0.57
0.29 0.30 0.34 0.32 0.31 0.31 0.33 0.40 0.47 0.37 0.42 0.44 0.45 0.63 0.64 0.56 0.53 0.53 0.49 0.28 0.19 0.20 0.34 0.74 0.41 0.27 0.35
0.46 0.46 0.50 0.51 0.52 0.44 0.37 0.43 0.43 0.38 0.44 0.48 0.66 1.00 1.18 0.60 0.35 0.36 0.71 0.60 0.33 0.27 0.32 0.46 0.51 0.31 0.30

GFSFLT2_prec_precacc_144.txt.gz
Total_Precipitation_Accumulation
1.37 1.27 1.25 1.25 1.24 1.14 1.19 1.17 1.25 1.45 1.23 1.09 0.87 0.70 0.63 0.57 0.53 0.50 0.50 0.56 0.73 0.87 1.03 1.08 1.18 1.50 1.95
1.77 1.61 1.48 1.33 1.12 0.87 0.80 0.85 0.89 1.20 1.20 1.13 1.04 0.94 0.92 0.92 0.81 0.68 0.57 0.50 0.47 0.49 0.55 0.68 0.75 0.80 0.85
1.09 1.00 1.02 1.15 1.25 1.17 1.04 0.95 0.88 1.15 1.06 1.04 1.08 1.05 0.96 0.90 0.92 0.98 0.96 0.76 0.54 0.45 0.45 0.46 0.63 0.79 0.87
0.60 0.53 0.50 0.54 0.64 0.68 0.65 0.57 0.49 0.50 0.57 0.57 0.65 0.69 0.78 0.81 0.73 0.70 0.78 0.94 1.05 0.95 0.74 0.65 0.60 0.66 0.69
0.43 0.33 0.28 0.25 0.26 0.29 0.33 0.39 0.44 0.49 0.41 0.33 0.27 0.23 0.28 0.43 0.59 0.72 0.73 0.77 0.85 0.96 1.00 0.93 0.90 0.94 1.05
0.17 0.12 0.09 0.11 0.15 0.23 0.32 0.44 0.44 0.32 0.32 0.30 0.26 0.21 0.16 0.16 0.28 0.41 0.54 0.62 0.66 0.68 0.81 0.99 0.98 0.92 1.14
0.09 0.06 0.07 0.07 0.16 0.20 0.19 0.21 0.15 0.10 0.22 0.31 0.29 0.30 0.22 0.24 0.25 0.23 0.33 0.41 0.47 0.55 0.64 0.70 0.84 1.04 1.03
0.16 0.16 0.20 0.22 0.27 0.31 0.18 0.14 0.10 0.08 0.14 0.23 0.16 0.22 0.20 0.22 0.32 0.30 0.33 0.34 0.36 0.40 0.47 0.58 0.66 0.73 0.87
0.27 0.37 0.44 0.45 0.35 0.33 0.39 0.38 0.28 0.13 0.09 0.10 0.09 0.14 0.16 0.17 0.20 0.29 0.32 0.37 0.43 0.50 0.44 0.44 0.54 0.63 0.61
0.08 0.16 0.26 0.32 0.36 0.24 0.18 0.34 0.35 0.43 0.27 0.34 0.18 0.15 0.31 0.13 0.15 0.22 0.24 0.28 0.30 0.36 0.59 0.66 0.56 0.56 0.53
0.04 0.10 0.17 0.27 0.31 0.32 0.30 0.40 0.50 0.36 0.14 0.54 0.62 0.32 0.52 0.20 0.06 0.11 0.12 0.16 0.20 0.24 0.32 0.46 0.66 0.64 0.61
0.04 0.07 0.13 0.20 0.25 0.31 0.40 0.48 0.49 0.52 0.28 0.37 0.80 0.35 0.62 0.46 0.18 0.11 0.12 0.11 0.14 0.16 0.21 0.40 0.54 0.61 0.77
0.04 0.06 0.07 0.12 0.22 0.38 0.48 0.50 0.57 0.60 0.54 0.53 0.62 0.51 0.71 0.69 0.36 0.15 0.22 0.20 0.14 0.14 0.21 0.35 0.48 0.58 0.62
0.09 0.08 0.11 0.16 0.24 0.31 0.40 0.41 0.50 0.46 0.51 0.54 0.52 0.67 0.85 0.60 0.60 0.41 0.21 0.31 0.30 0.27 0.31 0.32 0.40 0.52 0.62
0.20 0.21 0.19 0.20 0.21 0.19 0.30 0.42 0.57 0.45 0.38 0.39 0.48 0.52 0.55 0.55 0.74 0.43 0.28 0.21 0.22 0.36 0.45 0.45 0.36 0.55 0.57
0.30 0.31 0.34 0.33 0.31 0.31 0.33 0.40 0.47 0.37 0.42 0.44 0.45 0.64 0.65 0.56 0.53 0.53 0.49 0.28 0.19 0.20 0.34 0.74 0.41 0.27 0.35
0.47 0.46 0.51 0.52 0.53 0.45 0.38 0.44 0.43 0.39 0.44 0.48 0.66 1.00 1.19 0.61 0.35 0.36 0.71 0.60 0.33 0.27 0.32 0.46 0.52 0.31 0.30

GFSFLT2_prec_precacc_150.txt.gz
Total_Precipitation_Accumulation
1.37 1.27 1.25 1.25 1.24 1.14 1.19 1.17 1.25 1.45 1.23 1.09 0.87 0.70 0.63 0.57 0.53 0.50 0.50 0.56 0.73 0.87 1.03 1.09 1.18 1.50 1.95
1.77 1.61 1.48 1.33 1.12 0.87 0.80 0.85 0.89 1.20 1.20 1.13 1.04 0.94 0.92 0.92 0.81 0.68 0.57 0.50 0.47 0.49 0.55 0.68 0.75 0.80 0.85
1.09 1.00 1.02 1.15 1.25 1.17 1.04 0.95 0.88 1.15 1.06 1.04 1.08 1.05 0.96 0.90 0.92 0.98 0.96 0.76 0.54 0.45 0.45 0.46 0.63 0.79 0.87
0.60 0.53 0.50 0.54 0.64 0.68 0.65 0.57 0.49 0.50 0.57 0.57 0.65 0.69 0.78 0.81 0.73 0.70 0.78 0.94 1.05 0.95 0.74 0.65 0.60 0.66 0.70
0.43 0.33 0.28 0.25 0.26 0.29 0.33 0.39 0.44 0.49 0.41 0.33 0.27 0.23 0.28 0.43 0.59 0.72 0.73 0.77 0.85 0.96 1.00 0.93 0.90 0.94 1.05
0.17 0.12 0.09 0.11 0.15 0.23 0.32 0.44 0.44 0.32 0.32 0.30 0.26 0.21 0.16 0.16 0.28 0.41 0.54 0.62 0.66 0.68 0.81 0.99 0.98 0.92 1.14
0.09 0.06 0.07 0.07 0.16 0.20 0.19 0.21 0.15 0.10 0.22 0.31 0.29 0.30 0.22 0.24 0.25 0.23 0.33 0.41 0.47 0.55 0.64 0.70 0.84 1.04 1.03
0.17 0.17 0.20 0.22 0.27 0.31 0.18 0.14 0.10 0.08 0.14 0.23 0.16 0.22 0.20 0.22 0.32 0.30 0.33 0.34 0.36 0.40 0.47 0.58 0.66 0.73 0.87
0.27 0.37 0.44 0.45 0.35 0.34 0.40 0.39 0.29 0.13 0.09 0.11 0.09 0.14 0.16 0.17 0.20 0.29 0.32 0.37 0.43 0.50 0.44 0.44 0.54 0.63 0.61
0.09 0.16 0.26 0.33 0.37 0.25 0.19 0.36 0.36 0.43 0.27 0.34 0.18 0.15 0.31 0.13 0.15 0.22 0.24 0.28 0.30 0.36 0.59 0.66 0.56 0.56 0.53
0.04 0.10 0.17 0.27 0.31 0.32 0.31 0.42 0.51 0.37 0.14 0.55 0.62 0.32 0.52 0.20 0.06 0.11 0.12 0.16 0.20 0.24 0.32 0.46 0.66 0.64 0.61
0.05 0.07 0.13 0.20 0.25 0.32 0.42 0.50 0.50 0.53 0.28 0.39 0.83 0.36 0.62 0.46 0.18 0.11 0.12 0.11 0.14 0.16 0.21 0.40 0.54 0.61 0.77
0.07 0.07 0.08 0.12 0.23 0.39 0.49 0.52 0.60 0.61 0.55 0.55 0.66 0.53 0.72 0.70 0.37 0.15 0.22 0.20 0.14 0.14 0.21 0.35 0.48 0.58 0.62
0.14 0.11 0.16 0.21 0.26 0.32 0.43 0.43 0.55 0.47 0.51 0.54 0.54 0.69 0.87 0.61 0.61 0.42 0.21 0.31 0.30 0.27 0.31 0.32 0.40 0.52 0.62
0.32 0.33 0.31 0.30 0.27 0.22 0.35 0.47 0.62 0.46 0.39 0.40 0.50 0.54 0.56 0.55 0.75 0.44 0.29 0.21 0.22 0.36 0.45 0.45 0.36 0.55 0.57
0.47 0.44 0.46 0.42 0.38 0.38 0.39 0.47 0.50 0.38 0.44 0.47 0.48 0.68 0.66 0.57 0.54 0.54 0.49 0.28 0.19 0.20 0.35 0.75 0.42 0.27 0.35
0.60 0.56 0.59 0.61 0.60 0.52 0.41 0.49 0.47 0.40 0.46 0.52 0.69 1.02 1.21 0.62 0.35 0.36 0.71 0.60 0.34 0.27 0.32 0.47 0.52 0.31 0.30

GFSFLT2_prec_precacc_153.txt.gz
Total_Precipitation_Accumulation
1.37 1.27 1.25 1.25 1.24 1.14 1.19 1.17 1.25 1.45 1.23 1.09 0.87 0.70 0.63 0.57 0.53 0.50 0.50 0.56 0.73 0.87 1.03 1.09 1.18 1.50 1.95
1.77 1.61 1.48 1.33 1.12 0.87 0.80 0.85 0.89 1.20 1.20 1.13 1.04 0.94 0.92 0.92 0.81 0.68 0.57 0.50 0.47 0.49 0.55 0.68 0.75 0.80 0.85
1.09 1.00 1.02 1.15 1.25 1.17 1.04 0.95 0.88 1.15 1.06 1.04 1.08 1.05 0.96 0.90 0.92 0.98 0.96 0.76 0.54 0.45 0.45 0.46 0.63 0.79 0.87
0.60 0.53 0.50 0.54 0.64 0.68 0.65 0.57 0.49 0.50 0.57 0.57 0.65 0.69 0.78 0.81 0.73 0.70 0.78 0.94 1.05 0.95 0.74 0.65 0.60 0.66 0.70
0.43 0.33 0.28 0.25 0.26 0.29 0.33 0.39 0.44 0.49 0.41 0.33 0.27 0.23 0.28 0.43 0.59 0.72 0.73 0.77 0.85 0.96 1.00 0.93 0.90 0.94 1.05
0.17 0.12 0.09 0.11 0.15 0.23 0.32 0.44 0.44 0.32 0.32 0.30 0.26 0.21 0.16 0.16 0.28 0.41 0.54 0.62 0.66 0.68 0.81 0.99 0.98 0.92 1.14
0.09 0.06 0.07 0.07 0.16 0.20 0.19 0.21 0.15 0.10 0.22 0.31 0.29 0.30 0.22 0.24 0.25 0.23 0.33 0.41 0.47 0.55 0.64 0.70 0.84 1.04 1.04
0.17 0.17 0.20 0.22 0.27 0.31 0.18 0.14 0.10 0.08 0.14 0.23 0.16 0.22 0.20 0.22 0.32 0.30 0.33 0.34 0.36 0.40 0.47 0.58 0.66 0.73 0.87
0.27 0.37 0.44 0.45 0.35 0.34 0.41 0.39 0.30 0.13 0.09 0.11 0.09 0.14 0.16 0.17 0.20 0.29 0.32 0.37 0.43 0.50 0.44 0.44 0.54 0.63 0.61
0.09 0.16 0.26 0.33 0.37 0.26 0.20 0.39 0.38 0.46 0.27 0.35 0.19 0.15 0.31 0.13 0.15 0.22 0.24 0.28 0.30 0.36 0.59 0.66 0.56 0.56 0.53
0.04 0.10 0.17 0.28 0.33 0.34 0.33 0.43 0.54 0.39 0.14 0.55 0.63 0.32 0.53 0.20 0.06 0.11 0.12 0.16 0.20 0.24 0.32 0.46 0.66 0.64 0.61
0.06 0.08 0.14 0.21 0.27 0.35 0.47 0.55 0.51 0.53 0.28 0.41 0.84 0.36 0.63 0.46 0.18 0.11 0.12 0.11 0.14 0.16 0.21 0.40 0.54 0.61 0.77
0.09 0.08 0.09 0.15 0.30 0.50 0.63 0.67 0.70 0.64 0.56 0.56 0.67 0.53 0.73 0.71 0.37 0.15 0.22 0.20 0.14 0.14 0.21 0.35 0.48 0.58 0.62
0.16 0.13 0.17 0.27 0.41 0.48 0.60 0.58 0.69 0.53 0.53 0.56 0.56 0.73 0.93 0.62 0.61 0.42 0.21 0.31 0.30 0.27 0.31 0.32 0.40 0.52 0.62
0.36 0.40 0.37 0.37 0.37 0.36 0.52 0.62 0.72 0.50 0.42 0.41 0.52 0.58 0.60 0.57 0.77 0.44 0.29 0.21 0.22 0.36 0.45 0.45 0.36 0.55 0.57
0.50 0.49 0.54 0.51 0.46 0.48 0.51 0.58 0.57 0.41 0.47 0.51 0.50 0.75 0.73 0.59 0.54 0.54 0.49 0.28 0.19 0.20 0.35 0.75 0.42 0.27 0.35
0.63 0.61 0.64 0.67 0.67 0.61 0.48 0.56 0.52 0.43 0.48 0.56 0.72 1.04 1.24 0.62 0.35 0.36 0.71 0.60 0.34 0.27 0.32 0.47 0.52 0.31 0.30

GFSFLT2_prec_precacc_156.txt.gz
Total_Precipitation_Accumulation
1.37 1.27 1.25 1.25 1.24 1.14 1.19 1.17 1.25 1.45 1.23 1.09 0.87 0.70 0.63 0.57 0.53 0.50 0.50 0.56 0.73 0.87 1.03 1.09 1.18 1.50 1.95
1.77 1.61 1.48 1.33 1.12 0.87 0.80 0.85 0.89 1.20 1.20 1.13 1.04 0.94 0.92 0.92 0.81 0.68 0.57 0.50 0.47 0.49 0.55 0.68 0.75 0.80 0.85
1.09 1.00 1.02 1.15 1.25 1.17 1.04 0.95 0.88 1.15 1.06 1.04 1.08 1.05 0.96 0.90 0.92 0.98 0.96 0.76 0.54 0.45 0.45 0.46 0.63 0.79 0.87
0.60 0.53 0.50 0.54 0.64 0.68 0.65 0.57 0.49 0.50 0.57 0.57 0.65 0.69 0.78 0.81 0.73 0.70 0.78 0.94 1.05 0.95 0.74 0.65 0.60 0.66 0.70
0.43 0.33 0.28 0.25 0.26 0.29 0.33 0.39 0.44 0.49 0.41 0.33 0.27 0.23 0.28 0.43 0.59 0.72 0.73 0.77 0.85 0.96 1.00 0.93 0.90 0.94 1.05
0.17 0.12 0.09 0.11 0.15 0.23 0.32 0.44 0.44 0.32 0.32 0.30 0.26 0.21 0.16 0.16 0.28 0.41 0.54 0.62 0.66 0.68 0.81 0.99 0.98 0.92 1.15
0.09 0.06 0.07 0.07 0.16 0.20 0.19 0.21 0.15 0.10 0.22 0.31 0.29 0.30 0.22 0.24 0.25 0.23 0.33 0.41 0.47 0.55 0.64 0.70 0.85 1.05 1.04
0.17 0.17 0.20 0.22 0.27 0.31 0.18 0.15 0.11 0.08 0.14 0.23 0.16 0.22 0.20 0.22 0.32 0.30 0.33 0.34 0.36 0.40 0.47 0.58 0.66 0.73 0.87
0.27 0.38 0.44 0.45 0.36 0.35 0.43 0.42 0.33 0.14 0.09 0.11 0.09 0.14 0.16 0.17 0.20 0.29 0.32 0.37 0.43 0.50 0.44 0.44 0.54 0.63 0.61
0.09 0.17 0.27 0.33 0.37 0.28 0.24 0.46 0.43 0.50 0.28 0.36 0.20 0.16 0.33 0.13 0.15 0.22 0.24 0.28 0.30 0.36 0.59 0.66 0.56 0.56 0.53
0.05 0.10 0.17 0.28 0.33 0.35 0.36 0.48 0.61 0.48 0.16 0.59 0.70 0.35 0.56 0.20 0.06 0.11 0.12 0.16 0.20 0.24 0.32 0.46 0.66 0.65 0.61
0.06 0.08 0.14 0.21 0.28 0.35 0.48 0.59 0.58 0.61 0.34 0.53 0.96 0.40 0.66 0.48 0.19 0.11 0.12 0.11 0.14 0.16 0.21 0.40 0.54 0.61 0.77
0.09 0.08 0.10 0.16 0.30 0.50 0.64 0.73 0.85 0.81 0.75 0.78 0.79 0.57 0.76 0.74 0.37 0.15 0.22 0.20 0.14 0.14 0.21 0.35 0.48 0.58 0.62
0.17 0.13 0.18 0.28 0.42 0.49 0.63 0.63 0.82 0.69 0.69 0.82 0.76 0.82 0.99 0.65 0.62 0.43 0.21 0.32 0.30 0.27 0.31 0.32 0.40 0.52 0.62
0.37 0.40 0.38 0.38 0.38 0.38 0.57 0.72 0.84 0.57 0.50 0.55 0.70 0.70 0.65 0.61 0.79 0.45 0.29 0.21 0.22 0.36 0.45 0.45 0.36 0.55 0.57
0.50 0.50 0.55 0.53 0.49 0.50 0.55 0.66 0.65 0.46 0.53 0.57 0.59 0.86 0.82 0.64 0.56 0.55 0.50 0.29 0.19 0.20 0.35 0.75 0.42 0.27 0.35
0.64 0.62 0.66 0.70 0.72 0.66 0.52 0.61 0.58 0.48 0.53 0.61 0.75 1.06 1.26 0.63 0.35 0.36 0.72 0.60 0.34 0.28 0.32 0.47 0.52 0.31 0.30

GFSFLT2_prec_precacc_159.txt.gz
Total_Precipitation_Accumulation
1.37 1.27 1.25 1.25 1.24 1.14 1.19 1.17 1.25 1.45 1.23 1.09 0.87 0.70 0.63 0.57 0.53 0.50 0.50 0.56 0.73 0.87 1.03 1.09 1.18 1.50 1.95
1.77 1.61 1.48 1.33 1.12 0.87 0.80 0.85 0.89 1.20 1.20 1.13 1.04 0.94 0.92 0.92 0.81 0.68 0.57 0.50 0.47 0.49 0.55 0.68 0.75 0.80 0.85
1.09 1.00 1.02 1.15 1.25 1.17 1.04 0.95 0.88 1.15 1.06 1.04 1.08 1.05 0.96 0.90 0.92 0.98 0.96 0.76 0.54 0.45 0.45 0.46 0.63 0.79 0.87
0.60 0.53 0.50 0.54 0.64 0.68 0.65 0.57 0.49 0.50 0.57 0.57 0.65 0.69 0.78 0.81 0.73 0.70 0.78 0.94 1.05 0.95 0.74 0.65 0.60 0.66 0.70
0.43 0.33 0.28 0.25 0.26 0.29 0.33 0.39 0.44 0.49 0.41 0.33 0.27 0.23 0.28 0.43 0.59 0.72 0.73 0.77 0.85 0.96 1.00 0.93 0.90 0.94 1.05
0.17 0.12 0.09 0.11 0.15 0.23 0.32 0.44 0.44 0.32 0.32 0.30 0.26 0.21 0.16 0.16 0.28 0.41 0.54 0.62 0.66 0.68 0.81 0.99 0.98 0.92 1.15
0.09 0.06 0.07 0.07 0.16 0.21 0.19 0.21 0.15 0.10 0.22 0.31 0.29 0.30 0.22 0.24 0.25 0.23 0.33 0.41 0.47 0.55 0.64 0.71 0.85 1.05 1.04
0.17 0.17 0.20 0.22 0.27 0.32 0.19 0.16 0.12 0.09 0.15 0.24 0.16 0.22 0.20 0.22 0.32 0.30 0.33 0.34 0.36 0.40 0.47 0.59 0.67 0.74 0.87
0.27 0.38 0.45 0.46 0.36 0.36 0.44 0.44 0.34 0.14 0.09 0.12 0.09 0.14 0.16 0.17 0.20 0.29 0.32 0.38 0.43 0.50 0.44 0.44 0.55 0.63 0.61
0.09 0.17 0.27 0.33 0.38 0.28 0.25 0.47 0.45 0.53 0.29 0.37 0.21 0.17 0.39 0.15 0.15 0.22 0.25 0.29 0.30 0.36 0.59 0.66 0.56 0.56 0.53
0.05 0.10 0.17 0.28 0.33 0.35 0.36 0.49 0.64 0.52 0.17 0.62 0.78 0.41 0.64 0.25 0.07 0.11 0.14 0.19 0.22 0.24 0.32 0.46 0.66 0.65 0.61
0.06 0.08 0.14 0.21 0.28 0.36 0.48 0.60 0.59 0.62 0.34 0.55 1.11 0.49 0.74 0.60 0.25 0.12 0.15 0.15 0.16 0.17 0.21 0.40 0.54 0.61 0.77
0.09 0.08 0.10 0.16 0.30 0.50 0.64 0.73 0.86 0.81 0.76 0.82 0.91 0.70 0.87 0.83 0.42 0.18 0.25 0.23 0.16 0.15 0.22 0.35 0.48 0.58 0.62
0.17 0.13 0.18 0.28 0.42 0.49 0.63 0.63 0.84 0.71 0.72 0.89 0.86 0.95 1.16 0.76 0.66 0.47 0.24 0.34 0.31 0.27 0.31 0.32 0.40 0.52 0.62
0.37 0.40 0.38 0.39 0.38 0.38 0.58 0.73 0.87 0.59 0.53 0.58 0.78 0.83 0.79 0.73 0.89 0.50 0.31 0.22 0.22 0.36 0.46 0.45 0.36 0.55 0.57
0.51 0.51 0.58 0.55 0.50 0.51 0.56 0.69 0.68 0.47 0.56 0.62 0.66 0.95 0.92 0.75 0.62 0.58 0.53 0.30 0.20 0.22 0.38 0.76 0.42 0.27 0.35
0.66 0.65 0.69 0.72 0.73 0.67 0.54 0.64 0.60 0.50 0.54 0.63 0.80 1.14 1.31 0.66 0.37 0.37 0.74 0.61 0.36 0.32 0.35 0.48 0.52 0.31 0.30

GFSFLT2_prec_precacc_162.txt.gz
Total_Precipitation_Accumulation
1.37 1.27 1.25 1.25 1.24 1.14 1.19 1.17 1.25 1.45 1.23 1.09 0.87 0.70 0.63 0.57 0.53 0.50 0.50 0.56 0.73 0.87 1.03 1.09 1.18 1.50 1.95
1.77 1.61 1.48 1.33 1.12 0.87 0.80 0.85 0.89 1.20 1.20 1.13 1.04 0.94 0.92 0.92 0.81 0.68 0.57 0.50 0.47 0.49 0.55 0.68 0.75 0.80 0.85
1.09 1.00 1.02 1.15 1.25 1.17 1.04 0.95 0.88 1.15 1.06 1.04 1.08 1.05 0.96 0.90 0.92 0.98 0.96 0.76 0.54 0.45 0.45 0.46 0.63 0.79 0.87
0.60 0.53 0.50 0.54 0.64 0.68 0.65 0.57 0.49 0.50 0.57 0.57 0.65 0.69 0.78 0.81 0.73 0.70 0.78 0.94 1.05 0.95 0.74 0.65 0.60 0.66 0.70
0.43 0.33 0.28 0.25 0.26 0.29 0.33 0.39 0.44 0.49 0.41 0.33 0.27 0.23 0.28 0.43 0.59 0.72 0.73 0.77 0.85 0.96 1.00 0.93 0.90 0.94 1.05
0.17 0.12 0.09 0.11 0.15 0.23 0.32 0.44 0.44 0.32 0.32 0.30 0.26 0.21 0.16 0.16 0.28 0.41 0.54 0.62 0.66 0.68 0.81 1.00 0.98 0.92 1.15
0.09 0.07 0.07 0.07 0.16 0.21 0.19 0.21 0.15 0.10 0.23 0.31 0.29 0.30 0.22 0.24 0.25 0.23 0.33 0.41 0.47 0.55 0.64 0.71 0.85 1.05 1.04
0.17 0.17 0.20 0.22 0.27 0.32 0.20 0.16 0.12 0.09 0.15 0.25 0.16 0.22 0.20 0.22 0.32 0.30 0.33 0.34 0.36 0.41 0.48 0.59 0.67 0.74 0.88
0.28 0.38 0.45 0.46 0.36 0.37 0.44 0.44 0.35 0.14 0.09 0.12 0.10 0.14 0.16 0.17 0.20 0.29 0.32 0.38 0.45 0.52 0.45 0.46 0.56 0.65 0.62
0.09 0.17 0.27 0.33 0.38 0.28 0.25 0.49 0.46 0.55 0.29 0.38 0.21 0.17 0.41 0.15 0.15 0.22 0.25 0.30 0.33 0.40 0.63 0.69 0.59 0.59 0.55
0.06 0.11 0.18 0.28 0.33 0.35 0.36 0.51 0.68 0.55 0.17 0.64 0.81 0.44 0.69 0.28 0.08 0.11 0.14 0.20 0.28 0.34 0.44 0.56 0.73 0.70 0.62
0.06 0.08 0.14 0.21 0.28 0.36 0.48 0.60 0.59 0.64 0.34 0.56 1.15 0.52 0.79 0.67 0.30 0.13 0.16 0.18 0.24 0.29 0.34 0.52 0.65 0.69 0.83
0.09 0.08 0.10 0.16 0.30 0.50 0.64 0.73 0.86 0.81 0.76 0.82 0.92 0.75 0.97 0.95 0.51 0.22 0.28 0.28 0.23 0.23 0.32 0.45 0.54 0.59 0.63
0.17 0.13 0.18 0.28 0.42 0.49 0.63 0.63 0.84 0.72 0.72 0.89 0.89 1.04 1.25 0.80 0.72 0.53 0.27 0.40 0.37 0.33 0.37 0.36 0.41 0.53 0.62
0.37 0.40 0.38 0.39 0.38 0.38 0.59 0.75 0.89 0.60 0.54 0.58 0.79 0.86 0.83 0.81 0.97 0.56 0.36 0.30 0.26 0.39 0.49 0.47 0.37 0.55 0.57
0.51 0.51 0.58 0.56 0.51 0.52 0.57 0.71 0.70 0.48 0.57 0.62 0.68 0.97 0.94 0.79 0.71 0.65 0.61 0.38 0.24 0.23 0.38 0.78 0.42 0.27 0.35
0.67 0.66 0.71 0.74 0.74 0.69 0.55 0.65 0.62 0.51 0.55 0.65 0.84 1.17 1.33 0.67 0.40 0.43 0.80 0.66 0.40 0.36 0.37 0.49 0.53 0.31 0.30

GFSFLT2_prec_precacc_165.txt.gz
Total_Precipitation_Accumulation
1.37 1.27 1.25 1.25 1.24 1.14 1.19 1.17 1.25 1.45 1.23 1.09 0.87 0.70 0.63 0.57 0.53 0.50 0.50 0.56 0.73 0.87 1.03 1.09 1.18 1.50 1.95
1.77 1.61 1.48 1.33 1.12 0.87 0.80 0.85 0.89 1.20 1.20 1.13 1.04 0.94 0.92 0.92 0.81 0.68 0.57 0.50 0.47 0.49 0.55 0.68 0.75 0.80 0.86
1.09 1.00 1.02 1.15 1.25 1.17 1.04 0.95 0.88 1.15 1.06 1.04 1.08 1.05 0.96 0.90 0.92 0.98 0.96 0.76 0.55 0.45 0.45 0.46 0.63 0.79 0.87
0.60 0.53 0.50 0.54 0.64 0.68 0.65 0.57 0.49 0.50 0.57 0.57 0.65 0.69 0.78 0.81 0.73 0.70 0.78 0.94 1.05 0.95 0.74 0.65 0.60 0.66 0.70
0.43 0.33 0.28 0.25 0.26 0.29 0.33 0.39 0.44 0.49 0.41 0.33 0.27 0.23 0.28 0.43 0.59 0.72 0.73 0.77 0.85 0.96 1.01 0.94 0.91 0.94 1.05
0.17 0.12 0.09 0.11 0.15 0.23 0.32 0.44 0.44 0.32 0.32 0.30 0.26 0.21 0.16 0.16 0.28 0.41 0.54 0.62 0.66 0.68 0.82 1.01 0.99 0.93 1.16
0.09 0.07 0.07 0.07 0.16 0.21 0.20 0.22 0.16 0.10 0.23 0.31 0.29 0.30 0.22 0.24 0.25 0.23 0.33 0.41 0.47 0.55 0.64 0.72 0.86 1.07 1.06
0.17 0.17 0.20 0.22 0.27 0.33 0.22 0.19 0.14 0.09 0.15 0.26 0.16 0.22 0.20 0.22 0.32 0.30 0.33 0.34 0.36 0.41 0.48 0.60 0.68 0.76 0.90
0.28 0.38 0.45 0.47 0.38 0.38 0.48 0.48 0.36 0.14 0.09 0.13 0.10 0.14 0.16 0.17 0.20 0.29 0.32 0.38 0.45 0.52 0.46 0.47 0.58 0.67 0.64
0.10 0.18 0.28 0.33 0.38 0.30 0.26 0.49 0.47 0.56 0.29 0.39 0.22 0.18 0.43 0.16 0.15 0.22 0.25 0.30 0.33 0.40 0.64 0.73 0.66 0.66 0.63
0.06 0.11 0.18 0.28 0.33 0.35 0.36 0.51 0.70 0.57 0.17 0.65 0.85 0.46 0.73 0.30 0.08 0.11 0.14 0.20 0.28 0.34 0.45 0.62 0.84 0.84 0.79
0.06 0.08 0.14 0.21 0.28 0.36 0.48 0.60 0.60 0.65 0.34 0.57 1.20 0.55 0.83 0.70 0.31 0.13 0.16 0.18 0.24 0.30 0.36 0.57 0.73 0.86 1.08
0.09 0.08 0.10 0.16 0.30 0.50 0.64 0.73 0.86 0.81 0.76 0.82 0.97 0.79 1.04 1.03 0.55 0.23 0.30 0.28 0.24 0.26 0.35 0.51 0.62 0.71 0.84
0.17 0.13 0.18 0.28 0.42 0.49 0.63 0.63 0.85 0.72 0.72 0.89 0.89 1.08 1.34 0.86 0.77 0.57 0.29 0.42 0.38 0.36 0.42 0.43 0.52 0.66 0.75
0.37 0.40 0.38 0.39 0.38 0.38 0.59 0.76 0.91 0.60 0.54 0.58 0.79 0.88 0.90 0.88 1.03 0.60 0.41 0.34 0.30 0.45 0.55 0.51 0.42 0.60 0.63
0.52 0.52 0.60 0.57 0.51 0.53 0.58 0.73 0.71 0.49 0.57 0.63 0.69 1.00 0.95 0.80 0.74 0.67 0.63 0.40 0.30 0.29 0.41 0.79 0.43 0.28 0.35
0.69 0.67 0.72 0.76 0.78 0.71 0.55 0.65 0.62 0.51 0.55 0.67 0.88 1.21 1.35 0.68 0.40 0.44 0.82 0.67 0.44 0.40 0.39 0.50 0.53 0.31 0.30

GFSFLT2_prec_precacc_168.txt.gz
Total_Precipitation_Accumulation
1.37 1.27 1.25 1.25 1.24 1.14 1.19 1.17 1.25 1.45 1.23 1.09 0.87 0.70 0.63 0.57 0.53 0.50 0.50 0.56 0.73 0.88 1.03 1.09 1.18 1.50 1.96
1.77 1.61 1.48 1.33 1.12 0.87 0.80 0.85 0.89 1.20 1.20 1.13 1.04 0.94 0.92 0.92 0.81 0.68 0.57 0.50 0.47 0.49 0.56 0.68 0.76 0.81 0.86
1.09 1.00 1.02 1.15 1.25 1.17 1.04 0.95 0.88 1.15 1.06 1.04 1.08 1.05 0.96 0.90 0.92 0.98 0.96 0.76 0.55 0.46 0.46 0.47 0.64 0.79 0.87
0.60 0.53 0.50 0.54 0.64 0.68 0.65 0.57 0.49 0.50 0.57 0.57 0.65 0.69 0.78 0.81 0.73 0.70 0.78 0.94 1.05 0.95 0.75 0.66 0.62 0.67 0.71
0.43 0.33 0.28 0.25 0.26 0.29 0.33 0.39 0.44 0.49 0.41 0.33 0.27 0.23 0.28 0.43 0.59 0.72 0.73 0.77 0.85 0.96 1.01 0.94 0.92 0.96 1.07
0.17 0.12 0.09 0.11 0.15 0.23 0.32 0.45 0.44 0.32 0.32 0.30 0.26 0.21 0.16 0.16 0.28 0.41 0.54 0.62 0.66 0.68 0.82 1.01 1.00 0.94 1.17
0.09 0.07 0.07 0.08 0.16 0.21 0.20 0.23 0.16 0.10 0.24 0.33 0.29 0.30 0.22 0.24 0.25 0.23 0.33 0.41 0.48 0.56 0.65 0.72 0.87 1.07 1.07
0.17 0.17 0.20 0.23 0.28 0.37 0.29 0.25 0.15 0.09 0.16 0.27 0.16 0.22 0.20 0.22 0.32 0.30 0.33 0.34 0.36 0.41 0.49 0.61 0.69 0.76 0.91
0.28 0.39 0.47 0.50 0.40 0.41 0.48 0.50 0.37 0.14 0.09 0.14 0.10 0.14 0.16 0.17 0.20 0.29 0.32 0.38 0.45 0.52 0.47 0.48 0.59 0.68 0.65
0.10 0.18 0.28 0.33 0.39 0.30 0.26 0.50 0.48 0.57 0.29 0.40 0.22 0.19 0.45 0.16 0.15 0.22 0.25 0.30 0.33 0.40 0.64 0.74 0.66 0.67 0.64
0.06 0.11 0.18 0.28 0.33 0.35 0.36 0.51 0.72 0.58 0.18 0.68 0.88 0.47 0.76 0.31 0.08 0.11 0.14 0.20 0.28 0.34 0.45 0.62 0.84 0.85 0.82
0.06 0.08 0.14 0.21 0.28 0.36 0.48 0.60 0.60 0.66 0.35 0.58 1.27 0.58 0.87 0.73 0.31 0.13 0.16 0.18 0.24 0.30 0.36 0.57 0.74 0.88 1.10
0.09 0.08 0.10 0.16 0.30 0.50 0.64 0.73 0.86 0.81 0.76 0.82 1.01 0.83 1.09 1.07 0.56 0.24 0.30 0.28 0.24 0.26 0.35 0.51 0.63 0.72 0.86
0.18 0.13 0.18 0.28 0.42 0.49 0.64 0.63 0.86 0.72 0.72 0.89 0.90 1.12 1.41 0.89 0.80 0.59 0.29 0.45 0.39 0.37 0.44 0.44 0.53 0.69 0.82
0.37 0.41 0.39 0.39 0.39 0.38 0.60 0.77 0.92 0.61 0.54 0.58 0.79 0.89 0.93 0.93 1.08 0.61 0.43 0.37 0.32 0.48 0.57 0.53 0.44 0.64 0.75
0.52 0.52 0.60 0.58 0.52 0.54 0.60 0.74 0.71 0.49 0.57 0.63 0.70 1.01 0.95 0.80 0.75 0.68 0.64 0.42 0.31 0.32 0.43 0.81 0.46 0.31 0.38
0.70 0.69 0.73 0.77 0.80 0.72 0.55 0.65 0.62 0.52 0.55 0.67 0.90 1.25 1.38 0.68 0.40 0.44 0.83 0.68 0.46 0.43 0.43 0.53 0.55 0.32 0.31

GFSFLT2_prec_precacc_171.txt.gz
Total_Precipitation_Accumulation
1.37 1.27 1.25 1.25 1.24 1.14 1.19 1.17 1.25 1.45 1.23 1.09 0.87 0.70 0.63 0.57 0.53 0.50 0.50 0.56 0.73 0.88 1.04 1.11 1.20 1.52 1.97
1.77 1.61 1.48 1.33 1.12 0.87 0.80 0.85 0.89 1.20 1.20 1.13 1.04 0.94 0.92 0.92 0.81 0.68 0.57 0.50 0.47 0.50 0.56 0.70 0.78 0.85 0.91
1.09 1.00 1.02 1.15 1.25 1.17 1.04 0.95 0.88 1.15 1.06 1.04 1.08 1.05 0.96 0.90 0.92 0.98 0.96 0.76 0.55 0.46 0.46 0.48 0.65 0.81 0.90
0.60 0.53 0.50 0.54 0.64 0.68 0.65 0.57 0.49 0.50 0.57 0.57 0.65 0.69 0.78 0.81 0.73 0.70 0.78 0.94 1.05 0.95 0.75 0.66 0.62 0.68 0.72
0.43 0.33 0.28 0.25 0.26 0.29 0.33 0.39 0.44 0.49 0.41 0.33 0.27 0.23 0.28 0.43 0.59 0.72 0.73 0.77 0.86 0.96 1.01 0.94 0.92 0.96 1.07
0.17 0.12 0.09 0.11 0.15 0.23 0.33 0.45 0.46 0.33 0.33 0.31 0.26 0.21 0.16 0.16 0.28 0.41 0.54 0.62 0.66 0.69 0.82 1.02 1.01 0.95 1.18
0.10 0.07 0.07 0.08 0.17 0.23 0.24 0.29 0.23 0.12 0.25 0.34 0.30 0.31 0.22 0.24 0.25 0.23 0.33 0.41 0.48 0.56 0.65 0.73 0.88 1.08 1.08
0.17 0.17 0.21 0.24 0.31 0.43 0.33 0.27 0.15 0.09 0.17 0.28 0.16 0.22 0.20 0.22 0.32 0.30 0.33 0.34 0.36 0.42 0.50 0.62 0.70 0.77 0.92
0.29 0.41 0.49 0.51 0.40 0.41 0.49 0.50 0.38 0.14 0.09 0.14 0.10 0.14 0.16 0.17 0.20 0.29 0.32 0.38 0.45 0.53 0.47 0.48 0.60 0.69 0.67
0.11 0.19 0.28 0.33 0.39 0.30 0.26 0.51 0.49 0.58 0.29 0.41 0.23 0.20 0.46 0.16 0.15 0.22 0.25 0.30 0.33 0.40 0.64 0.74 0.66 0.67 0.64
0.06 0.11 0.18 0.28 0.33 0.35 0.36 0.52 0.74 0.60 0.18 0.72 0.92 0.48 0.78 0.31 0.08 0.11 0.14 0.20 0.28 0.34 0.45 0.62 0.85 0.86 0.82
0.07 0.08 0.15 0.21 0.28 0.36 0.48 0.60 0.60 0.68 0.35 0.59 1.33 0.59 0.91 0.75 0.31 0.13 0.16 0.18 0.24 0.30 0.36 0.57 0.74 0.88 1.11
0.10 0.08 0.10 0.16 0.30 0.50 0.64 0.73 0.86 0.81 0.76 0.82 1.03 0.86 1.13 1.12 0.58 0.24 0.30 0.28 0.24 0.26 0.36 0.51 0.63 0.72 0.86
0.18 0.13 0.18 0.28 0.42 0.49 0.65 0.64 0.87 0.72 0.72 0.89 0.90 1.14 1.44 0.90 0.82 0.60 0.29 0.47 0.39 0.38 0.45 0.44 0.53 0.69 0.82
0.38 0.41 0.39 0.39 0.39 0.38 0.61 0.78 0.94 0.61 0.54 0.58 0.79 0.89 0.93 0.94 1.10 0.61 0.43 0.37 0.33 0.50 0.59 0.53 0.44 0.65 0.76
0.53 0.53 0.61 0.59 0.53 0.54 0.60 0.75 0.72 0.49 0.57 0.63 0.70 1.01 0.95 0.80 0.76 0.68 0.64 0.42 0.32 0.33 0.45 0.82 0.46 0.33 0.39
0.70 0.69 0.74 0.77 0.80 0.72 0.55 0.66 0.62 0.52 0.55 0.67 0.90 1.26 1.40 0.68 0.40 0.45 0.85 0.69 0.46 0.44 0.44 0.55 0.57 0.35 0.32